Weather History for KAGC - October, 2012

Change the Weather History Date:

Friday, October 26, 2012

  Actual Average Record
Temperature  
Mean Temperature 65 °F -  
Max Temperature 77 °F 62 °F 80 °F (1991)
Min Temperature 54 °F 38 °F 26 °F (1988)
Growing Degree Days 15 (Base 50)    
Moisture  
Dew Point 51 °F    
Average Humidity 65    
Maximum Humidity 81    
Minimum Humidity 41    
Precipitation  
Precipitation 0.00 in - - ()
Sea Level Pressure  
Sea Level Pressure 30.05 in    
Wind  
Wind Speed 7 mph (South)    
Max Wind Speed 15 mph    
Max Gust Speed 23 mph    
Visibility 10 miles    
Events      
Averages and records for this station are not official NWS values.
T = Trace of Precipitation, MM = Missing Value Source: NWS Daily Summary

Daily Weather History Graph

Daily Weather History Graph

Search for Another Location

Airport or City:

Trip Planner

Search our weather history database for the weather conditions in past years. The results will help you decide how hot, cold, wet, or windy it might be!

Date:

Astronomy

Oct. 26, 2012 Rise Set
Actual Time 7:43 AM EDT 6:23 PM EDT
Civil Twilight 7:15 AM EDT 6:51 PM EDT
Nautical Twilight 6:43 AM EDT 7:23 PM EDT
Astronomical Twilight 6:11 AM EDT 7:54 PM EDT
Moon 4:38 PM EDT (10/26) 4:37 AM EDT (10/26)
Length of Visible Light 11h 36m
Length of Day
10h 40m
Waxing Gibbous, 91% of the Moon is Illuminated
Oct 26
Waxing Gibbous
Oct 29
Full
Nov 6
Last Quarter
Nov 13
New
Nov 20
First Quarter

Hourly Weather History & Observations

Time (EDT) Temp. Dew Point Humidity Pressure Visibility Wind Dir Wind Speed Gust Speed Precip Events Conditions
12:53 AM 64.4 °F 51.8 °F 64% 30.04 in 10.0 mi SSE 8.1 mph - N/A   Clear
1:53 AM 63.0 °F 52.0 °F 67% 30.03 in 10.0 mi SSE 6.9 mph - N/A   Clear
2:53 AM 62.1 °F 52.0 °F 70% 30.04 in 10.0 mi SSE 6.9 mph - N/A   Clear
3:53 AM 61.0 °F 51.1 °F 70% 30.05 in 10.0 mi SSE 6.9 mph - N/A   Clear
4:53 AM 60.1 °F 52.0 °F 75% 30.05 in 9.0 mi SSE 6.9 mph - N/A   Clear
5:53 AM 60.1 °F 52.0 °F 75% 30.06 in 9.0 mi SSE 6.9 mph - N/A   Clear
6:53 AM 59.0 °F 52.0 °F 78% 30.07 in 9.0 mi SSE 6.9 mph - N/A   Clear
7:53 AM 57.9 °F 52.0 °F 81% 30.09 in 7.0 mi SSE 5.8 mph - N/A   Clear
8:53 AM 61.0 °F 53.1 °F 75% 30.09 in 8.0 mi SSE 6.9 mph - N/A   Clear
9:53 AM 66.0 °F 52.0 °F 60% 30.10 in 10.0 mi South 8.1 mph - N/A   Clear
10:53 AM 69.1 °F 51.1 °F 53% 30.09 in 10.0 mi South 12.7 mph - N/A   Clear
11:53 AM 72.0 °F 52.0 °F 49% 30.09 in 10.0 mi SSW 5.8 mph - N/A   Clear
12:53 PM 73.0 °F 52.0 °F 48% 30.07 in 10.0 mi SW 5.8 mph - N/A   Mostly Cloudy
1:53 PM 73.9 °F 52.0 °F 46% 30.04 in 10.0 mi Calm Calm - N/A   Clear
2:53 PM 75.0 °F 53.1 °F 46% 30.01 in 10.0 mi Calm Calm - N/A   Scattered Clouds
3:53 PM 75.9 °F 51.1 °F 42% 30.01 in 10.0 mi South 5.8 mph - N/A   Mostly Cloudy
4:53 PM 75.0 °F 50.0 °F 41% 29.99 in 10.0 mi West 4.6 mph - N/A   Partly Cloudy
5:53 PM 71.1 °F 51.1 °F 49% 29.99 in 10.0 mi NNW 11.5 mph 19.6 mph N/A   Mostly Cloudy
6:53 PM 66.0 °F 52.0 °F 60% 30.02 in 10.0 mi NNW 15.0 mph 23.0 mph N/A   Mostly Cloudy
7:53 PM 57.9 °F 48.9 °F 72% 30.07 in 10.0 mi North 11.5 mph 23.0 mph N/A   Mostly Cloudy
8:53 PM 55.9 °F 48.9 °F 77% 30.08 in 10.0 mi North 9.2 mph 18.4 mph N/A   Overcast
9:35 PM 55.4 °F 48.2 °F 77% 30.06 in 10.0 mi North 10.4 mph - N/A   Overcast
9:53 PM 55.9 °F 48.0 °F 75% 30.07 in 10.0 mi North 9.2 mph - N/A   Overcast
10:53 PM 55.9 °F 48.9 °F 77% 30.06 in 10.0 mi North 5.8 mph - N/A   Overcast
11:20 PM 55.4 °F 48.2 °F 77% 30.03 in 10.0 mi North 8.1 mph - N/A   Scattered Clouds
11:53 PM 54.0 °F 48.0 °F 80% 30.03 in 10.0 mi North 5.8 mph - N/A   Clear